Brookhaven, MS

1:37 PM CDT on September 26, 2017 (GMT -0500)
Brookhaven

Weather History for K1R7 - January, 2014

Change the Weather History Date:

Thursday, January 2, 2014

  Actual Average (KMCB) Record (KMCB)
Temperature  
Mean Temperature 44 °F -  
Max Temperature 55 °F 56 °F 78 °F (1965)
Min Temperature 32 °F 36 °F 14 °F (1979)
Degree Days  
Heating Degree Days 22    
Moisture  
Dew Point 40 °F    
Average Humidity 80    
Maximum Humidity 100    
Minimum Humidity 50    
Precipitation  
Precipitation 0.07 in - - ()
Sea Level Pressure  
Sea Level Pressure 30.16 in    
Wind  
Wind Speed 7 mph (NW)    
Max Wind Speed 18 mph    
Max Gust Speed 30 mph    
Visibility 8 miles    
Events      
Averages and records for this station are not official NWS values.
T = Trace of Precipitation, MM = Missing Value Source: NWS Daily Summary

Daily Weather History Graph

Daily Weather History Graph

Search for Another Location

Airport or City:

Trip Planner

Search our weather history database for the weather conditions in past years. The results will help you decide how hot, cold, wet, or windy it might be!

Date:

Astronomy

Jan. 02, 2014 Rise Set
Actual Time 7:01 AM CST 5:10 PM CST
Civil Twilight 6:34 AM CST 5:36 PM CST
Nautical Twilight 6:04 AM CST 6:07 PM CST
Astronomical Twilight 5:34 AM CST 6:36 PM CST
Moon 7:49 AM CST (1/2) 6:59 PM CST (1/2)
Length of Visible Light 11h 02m
Length of Day
10h 08m
Waxing Crescent, 3% of the Moon is Illuminated
Jan 2
Waxing Crescent
Jan 7
First Quarter
Jan 15
Full
Jan 23
Last Quarter
Jan 30
New

Hourly Weather History & Observations

Time (CST) Temp. Windchill Dew Point Humidity Pressure Visibility Wind Dir Wind Speed Gust Speed Precip Events Conditions
12:15 AM 53.6 °F - 53.6 °F 100% 30.03 in 1.8 mi Calm Calm - N/A   Overcast
12:35 AM 53.6 °F - 53.6 °F 100% 30.03 in 2.0 mi SSE 3.5 mph - N/A   Overcast
12:55 AM 53.6 °F - 53.6 °F 100% 30.01 in 1.8 mi Calm Calm - N/A   Overcast
1:15 AM 53.6 °F - 53.6 °F 100% 30.01 in 1.2 mi SSE 3.5 mph - N/A   Overcast
1:35 AM 53.6 °F - 53.6 °F 100% 30.00 in 1.0 mi SSE 5.8 mph - N/A   Overcast
1:55 AM 53.6 °F - 53.6 °F 100% 30.00 in 1.5 mi SSE 3.5 mph - N/A   Overcast
2:15 AM 55.4 °F - 55.4 °F 100% 30.00 in 1.5 mi South 4.6 mph - 0.01 in   Overcast
2:35 AM 55.4 °F - 55.4 °F 100% 29.99 in 3.0 mi Calm Calm - 0.01 in   Mostly Cloudy
2:55 AM 55.4 °F - 55.4 °F 100% 29.99 in 3.0 mi West 3.5 mph - 0.01 in   Overcast
3:15 AM 55.4 °F - 55.4 °F 100% 30.01 in 3.0 mi WSW 5.8 mph - 0.06 in   Mostly Cloudy
3:35 AM 55.4 °F - 55.4 °F 100% 30.00 in 10.0 mi WSW 3.5 mph - 0.06 in   Mostly Cloudy
3:55 AM 53.6 °F - 53.6 °F 100% 30.00 in 5.0 mi West 3.5 mph - 0.06 in   Scattered Clouds
4:15 AM 53.6 °F - 53.6 °F 100% 29.99 in 4.0 mi SW 3.5 mph - N/A   Mostly Cloudy
4:35 AM 53.6 °F - 53.6 °F 100% 29.99 in 3.0 mi Calm Calm - N/A   Overcast
4:55 AM 53.6 °F - 53.6 °F 100% 29.99 in 3.0 mi WSW 3.5 mph - N/A   Overcast
5:15 AM 55.4 °F - 55.4 °F 100% 29.99 in 10.0 mi SW 5.8 mph - N/A   Overcast
5:35 AM 55.4 °F - 55.4 °F 100% 29.99 in 8.0 mi West 8.1 mph - N/A   Overcast
5:55 AM 55.4 °F - 55.4 °F 100% 29.99 in 9.0 mi West 11.5 mph - N/A   Overcast
6:15 AM 55.4 °F - 55.4 °F 100% 29.99 in 8.0 mi WNW 9.2 mph 17.3 mph N/A   Overcast
6:35 AM 55.4 °F - 53.6 °F 94% 29.99 in 10.0 mi WNW 17.3 mph 21.9 mph N/A   Overcast
6:55 AM 55.4 °F - 53.6 °F 94% 30.00 in 10.0 mi WNW 10.4 mph - N/A   Overcast
7:15 AM 55.4 °F - 53.6 °F 94% 30.01 in 8.0 mi WNW 10.4 mph 17.3 mph N/A   Mostly Cloudy
7:35 AM 53.6 °F - 51.8 °F 94% 30.02 in 9.0 mi WNW 9.2 mph 17.3 mph N/A   Partly Cloudy
7:55 AM 53.6 °F - 51.8 °F 94% 30.03 in 9.0 mi WNW 9.2 mph - N/A   Mostly Cloudy
8:15 AM 53.6 °F - 51.8 °F 94% 30.04 in 10.0 mi WNW 9.2 mph 16.1 mph N/A   Overcast
8:35 AM 53.6 °F - 50.0 °F 88% 30.06 in 10.0 mi NW 13.8 mph 21.9 mph N/A   Mostly Cloudy
8:55 AM 51.8 °F - 48.2 °F 88% 30.07 in 10.0 mi NW 12.7 mph - N/A   Mostly Cloudy
9:15 AM 51.8 °F - 46.4 °F 82% 30.09 in 9.0 mi NW 13.8 mph 23.0 mph N/A   Mostly Cloudy
9:35 AM 51.8 °F - 46.4 °F 82% 30.09 in 10.0 mi NW 11.5 mph 23.0 mph N/A   Scattered Clouds
9:55 AM 51.8 °F - 44.6 °F 76% 30.11 in 9.0 mi NW 15.0 mph 29.9 mph N/A   Mostly Cloudy
10:15 AM 51.8 °F - 44.6 °F 76% 30.12 in 9.0 mi NW 12.7 mph 24.2 mph N/A   Overcast
10:35 AM 50.0 °F - 42.8 °F 76% 30.13 in 10.0 mi NW 16.1 mph 28.8 mph N/A   Overcast
10:55 AM 48.2 °F - 39.2 °F 71% 30.14 in 10.0 mi NW 16.1 mph 23.0 mph N/A   Overcast
11:15 AM 48.2 °F - 39.2 °F 71% 30.14 in 9.0 mi NW 16.1 mph 28.8 mph N/A   Mostly Cloudy
11:35 AM 48.2 °F - 39.2 °F 71% 30.14 in 10.0 mi NW 16.1 mph 26.5 mph N/A   Mostly Cloudy
11:55 AM 48.2 °F - 37.4 °F 66% 30.14 in 10.0 mi NW 15.0 mph 23.0 mph N/A   Mostly Cloudy
12:15 PM 48.2 °F - 37.4 °F 66% 30.14 in 9.0 mi NNW 18.4 mph 24.2 mph N/A   Scattered Clouds
12:35 PM 48.2 °F - 35.6 °F 62% 30.14 in 9.0 mi NNW 16.1 mph 24.2 mph N/A   Partly Cloudy
12:55 PM 46.4 °F 39.2 °F 35.6 °F 66% 30.14 in 9.0 mi NW 18.4 mph 25.3 mph N/A   Clear
1:15 PM 46.4 °F 39.5 °F 33.8 °F 62% 30.15 in 10.0 mi NNW 17.3 mph 24.2 mph N/A   Clear
1:35 PM 46.4 °F 40.1 °F 33.8 °F 62% 30.15 in 10.0 mi NNW 15.0 mph 20.7 mph N/A   Clear
1:55 PM 46.4 °F 40.1 °F 32.0 °F 57% 30.16 in 10.0 mi North 15.0 mph 25.3 mph N/A   Clear
2:15 PM 46.4 °F 39.8 °F 32.0 °F 57% 30.17 in 10.0 mi NNW 16.1 mph 25.3 mph N/A   Clear
2:35 PM 46.4 °F 39.8 °F 32.0 °F 57% 30.19 in 10.0 mi North 16.1 mph 23.0 mph N/A   Clear
2:55 PM 46.4 °F 40.1 °F 30.2 °F 53% 30.19 in 10.0 mi NNW 15.0 mph 24.2 mph N/A   Clear
3:15 PM 46.4 °F 39.5 °F 32.0 °F 57% 30.21 in 10.0 mi NNW 17.3 mph 24.2 mph N/A   Clear
3:35 PM 46.4 °F 39.5 °F 28.4 °F 50% 30.22 in 10.0 mi NNW 17.3 mph 21.9 mph N/A   Clear
3:55 PM 44.6 °F 38.4 °F 28.4 °F 53% 30.23 in 10.0 mi North 12.7 mph - N/A   Clear
4:15 PM 42.8 °F 37.0 °F 26.6 °F 53% 30.24 in 10.0 mi North 10.4 mph 20.7 mph N/A   Clear
4:35 PM 42.8 °F 37.5 °F 28.4 °F 57% 30.25 in 10.0 mi NNW 9.2 mph - N/A   Clear
4:55 PM 42.8 °F 37.5 °F 28.4 °F 57% 30.26 in 10.0 mi NNW 9.2 mph - N/A   Clear
5:15 PM 39.2 °F 35.0 °F 28.4 °F 65% 30.27 in 10.0 mi North 5.8 mph - N/A   Clear
5:35 PM 39.2 °F 33.6 °F 28.4 °F 65% 30.28 in 10.0 mi NNW 8.1 mph - N/A   Clear
5:55 PM 39.2 °F 35.0 °F 28.4 °F 65% 30.29 in 10.0 mi NW 5.8 mph - N/A   Clear
6:15 PM 37.4 °F 32.8 °F 28.4 °F 70% 30.30 in 10.0 mi NW 5.8 mph - N/A   Clear
6:35 PM 37.4 °F 31.4 °F 28.4 °F 70% 30.31 in 10.0 mi NW 8.1 mph - N/A   Clear
6:55 PM 37.4 °F 32.1 °F 28.4 °F 70% 30.32 in 10.0 mi NW 6.9 mph - N/A   Clear
7:15 PM 35.6 °F 31.7 °F 28.4 °F 75% 30.33 in 10.0 mi NW 4.6 mph - N/A   Clear
7:35 PM 35.6 °F 29.9 °F 28.4 °F 75% 30.34 in 10.0 mi NW 6.9 mph - N/A   Clear
7:55 PM 35.6 °F 31.7 °F 28.4 °F 75% 30.34 in 10.0 mi NW 4.6 mph - N/A   Clear
8:15 PM 33.8 °F 30.8 °F 28.4 °F 81% 30.35 in 10.0 mi NNW 3.5 mph - N/A   Clear
8:35 PM 33.8 °F 28.6 °F 28.4 °F 81% 30.36 in 10.0 mi North 5.8 mph - N/A   Clear
8:55 PM 33.8 °F 28.6 °F 28.4 °F 81% 30.36 in 10.0 mi NNW 5.8 mph - N/A   Clear
9:15 PM 33.8 °F 29.6 °F 28.4 °F 81% 30.37 in 10.0 mi NNW 4.6 mph - N/A   Clear
9:35 PM 33.8 °F 27.7 °F 28.4 °F 81% 30.38 in 10.0 mi NNW 6.9 mph - N/A   Clear
9:55 PM 33.8 °F 27.7 °F 26.6 °F 75% 30.38 in 10.0 mi NNW 6.9 mph - N/A   Clear
10:15 PM 32.0 °F 25.6 °F 26.6 °F 80% 30.38 in 10.0 mi NNW 6.9 mph - N/A   Clear
10:35 PM 32.0 °F 26.4 °F 26.6 °F 80% 30.38 in 10.0 mi NNW 5.8 mph - N/A   Clear
10:55 PM 32.0 °F 26.4 °F 26.6 °F 80% 30.38 in 10.0 mi NNW 5.8 mph - N/A   Clear
11:15 PM 32.0 °F 25.6 °F 26.6 °F 80% 30.39 in 10.0 mi NNW 6.9 mph - N/A   Clear
11:35 PM 32.0 °F 26.4 °F 26.6 °F 80% 30.39 in 10.0 mi NNW 5.8 mph - N/A   Clear
11:55 PM 32.0 °F 26.4 °F 26.6 °F 80% 30.39 in 10.0 mi North 5.8 mph - N/A   Clear